Tracking 25193 objects as of 17-Jan-2022
HD Live streaming from Space Station
objects crossing your sky now

STARLINK-1486

Track STARLINK-1486 now!
10-day predictions
STARLINK-1486 is classified as:


NORAD ID: 45757
Int'l Code: 2020-038AD
Perigee: 553.1 km
Apogee: 555.6 km
Inclination: 53.1 °
Period: 95.6 minutes
Semi major axis: 6925 km
RCS: Unknown
Launch date: June 13, 2020
Source: United States (US)
Launch site: AIR FORCE EASTERN TEST RANGE (AFETR)
aabbcc
Your satellite tracking list
Your tracking list is empty




NASA's NSSDC Master Catalog

Two Line Element Set (TLE):
1 45757U 20038AD  22017.56770257 -.00001610  00000-0 -89221-4 0  9998
2 45757  53.0548 164.8038 0001774  84.9981 275.1210 15.06393773 88551
Source of the keplerian elements: AFSPC